Regional Weather Roundup
Issued by NWS

Home | Current Version | Previous Version | Text Only | Print | Product List | Glossary Off
Versions: 1 2 3 4 5 6 7 8 9 10 11 12 13 14 15 16 17 18 19 20 21 22 23 24 25 26 27 28 29 30 31 32 33 34 35 36 37 38 39 40 41 42 43 44 45 46 47 48 49 50

000
ASUS43 KFSD 301502
RWRSD

WEATHER ROUNDUP FOR SOUTH DAKOTA
NATIONAL WEATHER SERVICE SIOUX FALLS SD
900 AM CST FRI JAN 30 2015

NOTE: "FAIR" INDICATES FEW OR NO CLOUDS BELOW 12,000 FEET WITH NO
SIGNIFICANT WEATHER AND/OR OBSTRUCTIONS TO VISIBILITY.


SDZ001>005-009-010-012>017-301600-
NORTHWEST AND NORTH CENTRAL SOUTH DAKOTA

CITY           SKY/WX    TMP DP  RH WIND       PRES   REMARKS
BUFFALO          N/A     22  16  78 W5        30.10S WCI  16
FAITH            N/A     21  17  84 SW8       30.17F WCI  11
MOBRIDGE       CLEAR     22  19  89 SE9       30.19F WCI  12
$$

SDZ012>016-024>037-041>051-057-063-072>074-301600-
SOUTHWEST AND SOUTH CENTRAL SOUTH DAKOTA

CITY           SKY/WX    TMP DP  RH WIND       PRES   REMARKS
RAPID CTY ARPT MOCLDY    23  18  81 NW3       30.17S
PIERRE         CLEAR     23  20  88 SE9       30.24F WCI  13
CUSTER           N/A    N/A N/A N/A MISG      30.16S
ELLSWORTH AFB  MOCLDY    27  18  69 N8        30.16S WCI  19
PHILIP         MOCLDY    19  15  84 W3        30.21S
PINE RIDGE     CLOUDY    33  20  58 S3        30.21S
WINNER         FAIR      33  21  61 S17G24    30.25F WCI  22
$$

SDZ004>011-016>023-039-040-301600-
NORTHEAST SOUTH DAKOTA

CITY           SKY/WX    TMP DP  RH WIND       PRES   REMARKS
ABERDEEN       CLEAR     21  17  84 S15       30.32F WCI   8
WATERTOWN      CLEAR     19  16  88 S14       30.34F WCI   6
SISSETON         N/A     16  14  92 SE12      30.37F WCI   3
$$

SDZ017-020-022-023-036>040-048>070-301600-
SOUTHEAST SOUTH DAKOTA

CITY           SKY/WX    TMP DP  RH WIND       PRES   REMARKS
SIOUX FALLS    MOSUNNY   21  18  88 S10       30.45F WCI  10
HURON          CLEAR     20  17  88 SE14G23   30.35F WCI   7
MITCHELL       CLEAR     22  19  89 SE14      30.41F WCI   9
YANKTON        MOSUNNY   19  16  86 SE7       30.46F WCI  10
$$

ABBREVIATIONS USED IN REMARKS
   TC - TEMPERATURE IN CELSIUS
  WCI - WIND CHILL INDEX
   HX - HEAT INDEX
  VSB - VISIBILITY



USA.gov is the U.S. government's official web portal to all federal, state and local government web resources and services.